CXB787 LSZH-EBOS

Flight info

Callsign CXB787
Flight time 1h 3m
Altitude 34000
Route ZUE Z601 TRA DCT BEGAR DCT GTQ N852 DIK M624 BUB L608 DENUT
Aircraft B788/H-SDE1E2E3FGHIJ2J3J4J5M1RWXY/LB1D1

Departure

Time 2026-04-26 18:56
Airport Zürich Airport (LSZH)

Arrival

Time 2026-04-26 20:00
Airport Ostend-Bruges International Airport (EBOS)
Time Latitude Longitude Altitude Speed Heading
2026-04-26 18:34 47.45173 8.54748 1399 ft 0 kts 109°
2026-04-26 18:44 47.45174 8.54746 1399 ft 3 kts 109°
2026-04-26 18:45 47.45180 8.54720 1409 ft 3 kts 109°
2026-04-26 18:45 47.45186 8.54693 1405 ft 3 kts 109°
2026-04-26 18:45 47.45192 8.54665 1406 ft 3 kts 78°
2026-04-26 18:45 47.45184 8.54638 1409 ft 3 kts 46°
2026-04-26 18:46 47.45171 8.54617 1409 ft 3 kts 33°
2026-04-26 18:46 47.45163 8.54609 1409 ft 0 kts 21°
2026-04-26 18:48 47.45175 8.54616 1409 ft 3 kts 21°
2026-04-26 18:49 47.45207 8.54634 1406 ft 6 kts 21°
2026-04-26 18:49 47.45257 8.54663 1405 ft 9 kts 21°
2026-04-26 18:49 47.45322 8.54712 1409 ft 11 kts 40°
2026-04-26 18:49 47.45345 8.54807 1408 ft 9 kts 108°
2026-04-26 18:50 47.45300 8.54874 1409 ft 11 kts 147°
2026-04-26 18:50 47.45265 8.54939 1407 ft 3 kts 95°
2026-04-26 18:50 47.45274 8.54967 1408 ft 5 kts 59°
2026-04-26 18:50 47.45311 8.55005 1405 ft 8 kts 23°
2026-04-26 18:51 47.45381 8.55041 1411 ft 13 kts 19°
2026-04-26 18:51 47.45488 8.55097 1410 ft 19 kts 19°
2026-04-26 18:51 47.45621 8.55162 1408 ft 17 kts 18°
2026-04-26 18:51 47.45676 8.55240 1412 ft 8 kts 82°
2026-04-26 18:52 47.45678 8.55324 1411 ft 8 kts 94°
2026-04-26 18:52 47.45674 8.55379 1412 ft 8 kts 97°
2026-04-26 18:52 47.45664 8.55497 1408 ft 9 kts 96°
2026-04-26 18:52 47.45657 8.55598 1410 ft 11 kts 96°
2026-04-26 18:53 47.45649 8.55711 1417 ft 12 kts 96°
2026-04-26 18:53 47.45641 8.55833 1418 ft 12 kts 96°
2026-04-26 18:53 47.45632 8.55961 1421 ft 13 kts 96°
2026-04-26 18:53 47.45622 8.56104 1417 ft 15 kts 96°
2026-04-26 18:54 47.45620 8.56227 1423 ft 8 kts 69°
2026-04-26 18:54 47.45672 8.56269 1423 ft 12 kts 12°
2026-04-26 18:54 47.45755 8.56284 1426 ft 12 kts
2026-04-26 18:54 47.45851 8.56301 1425 ft 16 kts
2026-04-26 18:55 47.45969 8.56320 1423 ft 19 kts
2026-04-26 18:55 47.46111 8.56339 1418 ft 21 kts
2026-04-26 18:55 47.46236 8.56299 1419 ft 17 kts 322°
2026-04-26 18:55 47.46292 8.56223 1418 ft 8 kts 317°
2026-04-26 18:56 47.46367 8.56122 1416 ft 28 kts 317°
2026-04-26 18:56 47.46689 8.55684 1410 ft 108 kts 317°
2026-04-26 18:56 47.47437 8.54650 1708 ft 167 kts 315°
2026-04-26 18:56 47.48240 8.53473 3138 ft 163 kts 321°
2026-04-26 18:57 47.49091 8.52254 4123 ft 180 kts 319°
2026-04-26 18:57 47.49754 8.51364 4599 ft 200 kts 327°
2026-04-26 18:57 47.51516 8.49995 5693 ft 224 kts 335°
2026-04-26 18:57 47.52723 8.48534 6907 ft 229 kts 310°
2026-04-26 18:58 47.53400 8.46408 8039 ft 232 kts 285°
2026-04-26 18:58 47.53413 8.44027 9192 ft 234 kts 260°
2026-04-26 18:58 47.52821 8.41786 10340 ft 234 kts 246°
2026-04-26 18:58 47.52181 8.39525 11080 ft 249 kts 257°
2026-04-26 18:59 47.52401 8.36904 11547 ft 270 kts 296°
2026-04-26 18:59 47.53540 8.34685 12414 ft 280 kts 310°
2026-04-26 18:59 47.54884 8.32395 13058 ft 309 kts 309°
2026-04-26 18:59 47.56254 8.29772 13660 ft 337 kts 305°
2026-04-26 19:00 47.57648 8.26807 14140 ft 363 kts 304°
2026-04-26 19:00 47.59112 8.23741 15235 ft 365 kts 305°
2026-04-26 19:00 47.60624 8.20694 16263 ft 370 kts 306°
2026-04-26 19:00 47.62155 8.17606 17263 ft 374 kts 306°
2026-04-26 19:01 47.63688 8.14464 18267 ft 378 kts 306°
2026-04-26 19:01 47.65234 8.11280 19111 ft 383 kts 306°
2026-04-26 19:01 47.66804 8.08063 19940 ft 386 kts 306°
2026-04-26 19:01 47.68367 8.04863 20736 ft 389 kts 306°
2026-04-26 19:02 47.69958 8.01596 21510 ft 393 kts 306°
2026-04-26 19:02 47.71542 7.98335 22236 ft 396 kts 306°
2026-04-26 19:02 47.73161 7.95000 22981 ft 398 kts 307°
2026-04-26 19:02 47.74250 7.92755 23714 ft 394 kts 307°
2026-04-26 19:03 47.76352 7.88415 24818 ft 390 kts 307°
2026-04-26 19:03 47.77933 7.85147 25556 ft 388 kts 307°
2026-04-26 19:03 47.79504 7.81896 26301 ft 387 kts 307°
2026-04-26 19:03 47.81069 7.78653 27049 ft 385 kts 307°
2026-04-26 19:04 47.82625 7.75427 27804 ft 383 kts 307°
2026-04-26 19:04 47.84174 7.72209 28533 ft 381 kts 307°
2026-04-26 19:04 47.85714 7.69008 29305 ft 379 kts 307°
2026-04-26 19:04 47.87246 7.65818 30085 ft 377 kts 307°
2026-04-26 19:05 47.89064 7.62032 30844 ft 376 kts 308°
2026-04-26 19:05 47.90779 7.59118 31409 ft 374 kts 319°
2026-04-26 19:05 47.92845 7.56806 32036 ft 371 kts 330°
2026-04-26 19:06 47.95111 7.54978 32641 ft 370 kts 332°
2026-04-26 19:06 47.97380 7.53179 33296 ft 368 kts 332°
2026-04-26 19:06 47.99636 7.51408 33979 ft 365 kts 332°
2026-04-26 19:06 48.01904 7.49627 34178 ft 374 kts 332°
2026-04-26 19:07 48.04223 7.47794 34176 ft 379 kts 332°
2026-04-26 19:07 48.06584 7.45925 34179 ft 390 kts 332°
2026-04-26 19:07 48.09023 7.43997 34194 ft 402 kts 332°
2026-04-26 19:07 48.11533 7.42011 34198 ft 413 kts 332°
2026-04-26 19:08 48.14106 7.39971 34193 ft 424 kts 332°
2026-04-26 19:08 48.19336 7.35817 34186 ft 430 kts 332°
2026-04-26 19:09 48.24624 7.31609 34196 ft 430 kts 332°
2026-04-26 19:09 48.29901 7.27397 34191 ft 429 kts 332°
2026-04-26 19:10 48.35185 7.23172 34201 ft 430 kts 332°
2026-04-26 19:10 48.40468 7.18937 34209 ft 430 kts 332°
2026-04-26 19:11 48.45749 7.14694 34213 ft 430 kts 332°
2026-04-26 19:11 48.51017 7.10450 34216 ft 429 kts 332°
2026-04-26 19:12 48.56291 7.06192 34213 ft 430 kts 332°
2026-04-26 19:12 48.61572 7.01918 34213 ft 431 kts 332°
2026-04-26 19:13 48.66852 6.97635 34219 ft 431 kts 332°
2026-04-26 19:13 48.72126 6.93346 34208 ft 430 kts 332°
2026-04-26 19:14 48.77395 6.89051 34207 ft 430 kts 332°
2026-04-26 19:14 48.82663 6.84747 34208 ft 430 kts 332°
2026-04-26 19:15 48.87895 6.80461 34213 ft 430 kts 331°
2026-04-26 19:15 48.93163 6.76136 34222 ft 430 kts 331°
2026-04-26 19:16 48.98432 6.71813 34222 ft 430 kts 333°
2026-04-26 19:16 49.03913 6.68161 34228 ft 430 kts 336°
2026-04-26 19:17 49.09413 6.64524 34221 ft 431 kts 336°
2026-04-26 19:17 49.14922 6.60885 34219 ft 431 kts 335°
2026-04-26 19:18 49.20411 6.57242 34222 ft 429 kts 335°
2026-04-26 19:18 49.25885 6.53604 34225 ft 428 kts 335°
2026-04-26 19:19 49.31344 6.49964 34224 ft 430 kts 335°
2026-04-26 19:19 49.36829 6.46293 34222 ft 430 kts 334°
2026-04-26 19:20 49.42230 6.42377 34222 ft 429 kts 334°
2026-04-26 19:20 49.47662 6.38538 34226 ft 430 kts 336°
2026-04-26 19:21 49.52252 6.35577 34211 ft 430 kts 336°
2026-04-26 19:21 49.58666 6.31439 34217 ft 430 kts 336°
2026-04-26 19:22 49.63275 6.28460 34525 ft 421 kts 335°
2026-04-26 19:22 49.65908 6.26731 35229 ft 412 kts 335°
2026-04-26 19:22 49.68500 6.24956 35947 ft 404 kts 334°
2026-04-26 19:22 49.71072 6.23187 36202 ft 409 kts 335°
2026-04-26 19:23 49.73711 6.21405 36208 ft 419 kts 335°
2026-04-26 19:23 49.79172 6.17716 35586 ft 434 kts 335°
2026-04-26 19:23 49.81912 6.15848 35105 ft 428 kts 334°
2026-04-26 19:24 49.84592 6.13934 34631 ft 422 kts 329°
2026-04-26 19:24 49.87031 6.11441 34235 ft 418 kts 320°
2026-04-26 19:24 49.91297 6.05328 34246 ft 424 kts 316°
2026-04-26 19:25 49.94849 6.00036 34253 ft 427 kts 316°
2026-04-26 19:25 49.99866 5.92551 34244 ft 428 kts 316°
2026-04-26 19:26 50.04146 5.86145 34248 ft 422 kts 315°
2026-04-26 19:26 50.08404 5.79757 34259 ft 428 kts 315°
2026-04-26 19:27 50.12690 5.73318 34265 ft 428 kts 315°
2026-04-26 19:27 50.16969 5.66868 34269 ft 428 kts 315°
2026-04-26 19:28 50.21247 5.60405 34272 ft 428 kts 315°
2026-04-26 19:28 50.25498 5.53967 34272 ft 428 kts 315°
2026-04-26 19:29 50.29782 5.47460 34272 ft 431 kts 315°
2026-04-26 19:29 50.34073 5.40925 34269 ft 430 kts 315°
2026-04-26 19:30 50.38350 5.34395 34274 ft 429 kts 315°
2026-04-26 19:30 50.41925 5.28923 34273 ft 428 kts 315°
2026-04-26 19:31 50.46878 5.21322 34273 ft 429 kts 315°
2026-04-26 19:31 50.51142 5.14758 34276 ft 430 kts 315°
2026-04-26 19:32 50.55421 5.08156 34275 ft 432 kts 314°
2026-04-26 19:32 50.59705 5.01526 34279 ft 432 kts 314°
2026-04-26 19:33 50.63978 4.94896 34280 ft 431 kts 314°
2026-04-26 19:33 50.66096 4.91604 33730 ft 423 kts 314°
2026-04-26 19:33 50.68167 4.88382 33173 ft 416 kts 314°
2026-04-26 19:34 50.70207 4.85207 32677 ft 422 kts 314°
2026-04-26 19:34 50.72321 4.81913 32118 ft 431 kts 314°
2026-04-26 19:34 50.74462 4.78572 31540 ft 433 kts 314°
2026-04-26 19:34 50.76613 4.75212 30940 ft 436 kts 314°
2026-04-26 19:35 50.78773 4.71830 30336 ft 438 kts 314°
2026-04-26 19:35 50.80936 4.68438 29643 ft 438 kts 314°
2026-04-26 19:35 50.83115 4.65018 28982 ft 444 kts 314°
2026-04-26 19:35 50.85271 4.61631 28305 ft 430 kts 314°
2026-04-26 19:36 50.87374 4.58322 27618 ft 426 kts 314°
2026-04-26 19:36 50.88773 4.56115 27160 ft 431 kts 313°
2026-04-26 19:36 50.91248 4.51171 26172 ft 427 kts 301°
2026-04-26 19:36 50.92780 4.47218 25427 ft 416 kts 301°
2026-04-26 19:37 50.94275 4.43323 24677 ft 413 kts 300°
2026-04-26 19:37 50.95770 4.39409 23880 ft 416 kts 300°
2026-04-26 19:37 50.97264 4.35511 23008 ft 408 kts 301°
2026-04-26 19:37 50.98725 4.31702 22174 ft 401 kts 300°
2026-04-26 19:38 51.00172 4.27914 21292 ft 401 kts 300°
2026-04-26 19:38 51.01616 4.24123 20402 ft 399 kts 300°
2026-04-26 19:38 51.03038 4.20389 19473 ft 392 kts 300°
2026-04-26 19:38 51.04442 4.16702 18534 ft 388 kts 300°
2026-04-26 19:39 51.05830 4.13046 17587 ft 387 kts 300°
2026-04-26 19:39 51.07222 4.09374 16355 ft 393 kts 300°
2026-04-26 19:39 51.08622 4.05678 15413 ft 383 kts 300°
2026-04-26 19:39 51.09978 4.02096 14496 ft 373 kts 301°
2026-04-26 19:40 51.11309 3.98569 13574 ft 370 kts 301°
2026-04-26 19:40 51.12631 3.95064 12688 ft 368 kts 301°
2026-04-26 19:40 51.13945 3.91575 11800 ft 365 kts 301°
2026-04-26 19:40 51.15210 3.88212 11077 ft 351 kts 301°
2026-04-26 19:41 51.16426 3.84976 10728 ft 328 kts 301°
2026-04-26 19:41 51.17548 3.81987 10598 ft 301 kts 301°
2026-04-26 19:41 51.18577 3.79239 10472 ft 278 kts 301°
2026-04-26 19:41 51.19229 3.77499 10396 ft 263 kts 301°
2026-04-26 19:42 51.20474 3.74170 10053 ft 267 kts 301°
2026-04-26 19:42 51.21420 3.71638 9709 ft 265 kts 301°
2026-04-26 19:42 51.22372 3.69089 9393 ft 266 kts 301°
2026-04-26 19:42 51.23298 3.66607 9075 ft 258 kts 301°
2026-04-26 19:43 51.24219 3.64133 8756 ft 260 kts 301°
2026-04-26 19:43 51.25144 3.61644 8449 ft 261 kts 300°
2026-04-26 19:43 51.26074 3.59141 8327 ft 262 kts 300°
2026-04-26 19:43 51.27008 3.56625 8331 ft 264 kts 300°
2026-04-26 19:44 51.27929 3.54142 7770 ft 260 kts 300°
2026-04-26 19:44 51.28808 3.51646 7352 ft 257 kts 294°
2026-04-26 19:44 51.29076 3.48839 7001 ft 259 kts 265°
2026-04-26 19:44 51.28734 3.46007 6679 ft 261 kts 258°
2026-04-26 19:45 51.28308 3.43215 6347 ft 255 kts 256°
2026-04-26 19:45 51.27880 3.40442 6030 ft 258 kts 257°
2026-04-26 19:45 51.27475 3.37677 6007 ft 257 kts 257°
2026-04-26 19:45 51.27206 3.34915 6002 ft 247 kts 270°
2026-04-26 19:46 51.27453 3.32192 6000 ft 249 kts 288°
2026-04-26 19:46 51.28150 3.29663 6002 ft 248 kts 297°
2026-04-26 19:46 51.28905 3.27182 6007 ft 249 kts 294°
2026-04-26 19:46 51.29401 3.24556 5988 ft 250 kts 271°
2026-04-26 19:47 51.29136 3.21829 5962 ft 252 kts 261°
2026-04-26 19:47 51.28958 3.19988 5843 ft 250 kts 263°
2026-04-26 19:47 51.28773 3.16310 5862 ft 248 kts 269°
2026-04-26 19:47 51.28759 3.13544 5827 ft 251 kts 270°
2026-04-26 19:48 51.28743 3.10811 5566 ft 241 kts 269°
2026-04-26 19:48 51.28711 3.08149 5169 ft 237 kts 271°
2026-04-26 19:48 51.28671 3.05545 4821 ft 232 kts 269°
2026-04-26 19:48 51.28605 3.02997 4425 ft 229 kts 269°
2026-04-26 19:49 51.28535 3.00457 4061 ft 226 kts 270°
2026-04-26 19:49 51.28459 2.98005 3935 ft 219 kts 269°
2026-04-26 19:49 51.28329 2.95651 3908 ft 214 kts 264°
2026-04-26 19:49 51.28086 2.93274 3901 ft 216 kts 261°
2026-04-26 19:50 51.27773 2.90989 3850 ft 213 kts 257°
2026-04-26 19:50 51.27410 2.88672 3786 ft 213 kts 258°
2026-04-26 19:50 51.27061 2.86374 3736 ft 213 kts 258°
2026-04-26 19:50 51.26684 2.84081 3707 ft 213 kts 256°
2026-04-26 19:51 51.26313 2.81793 3639 ft 212 kts 258°
2026-04-26 19:51 51.25992 2.79493 3573 ft 211 kts 260°
2026-04-26 19:51 51.25662 2.77224 3606 ft 209 kts 257°
2026-04-26 19:51 51.25314 2.74950 3691 ft 211 kts 258°
2026-04-26 19:52 51.24949 2.72660 3794 ft 215 kts 258°
2026-04-26 19:52 51.24568 2.70347 3810 ft 216 kts 257°
2026-04-26 19:52 51.24199 2.68044 3806 ft 209 kts 257°
2026-04-26 19:52 51.23864 2.65796 3671 ft 209 kts 259°
2026-04-26 19:53 51.23538 2.63564 3198 ft 203 kts 258°
2026-04-26 19:53 51.23238 2.61393 2860 ft 199 kts 259°
2026-04-26 19:53 51.22845 2.59382 2855 ft 185 kts 244°
2026-04-26 19:53 51.22018 2.57800 2987 ft 187 kts 218°
2026-04-26 19:54 51.20828 2.56840 2870 ft 194 kts 195°
2026-04-26 19:54 51.19554 2.56604 2738 ft 188 kts 176°
2026-04-26 19:54 51.18296 2.56989 2609 ft 183 kts 162°
2026-04-26 19:54 51.17093 2.57623 2554 ft 180 kts 159°
2026-04-26 19:55 51.15914 2.58313 2579 ft 182 kts 155°
2026-04-26 19:55 51.15153 2.59746 2663 ft 170 kts 94°
2026-04-26 19:55 51.15443 2.61594 2831 ft 180 kts 65°
2026-04-26 19:55 51.15846 2.63359 2774 ft 159 kts 69°
2026-04-26 19:56 51.16185 2.64903 2589 ft 137 kts 69°
2026-04-26 19:56 51.16455 2.66318 2309 ft 131 kts 72°
2026-04-26 19:56 51.16705 2.67672 2075 ft 124 kts 72°
2026-04-26 19:56 51.16948 2.69008 1915 ft 123 kts 73°
2026-04-26 19:57 51.17185 2.70325 1717 ft 122 kts 73°
2026-04-26 19:57 51.17422 2.71614 1613 ft 120 kts 72°
2026-04-26 19:57 51.17650 2.72905 1538 ft 120 kts 73°
2026-04-26 19:57 51.17873 2.74202 1494 ft 122 kts 73°
2026-04-26 19:58 51.18095 2.75519 1410 ft 126 kts 75°
2026-04-26 19:58 51.18321 2.76862 1250 ft 124 kts 73°
2026-04-26 19:58 51.18532 2.78171 1076 ft 122 kts 74°
2026-04-26 19:58 51.18729 2.79482 897 ft 121 kts 74°
2026-04-26 19:59 51.18930 2.80772 700 ft 120 kts 75°
2026-04-26 19:59 51.19142 2.82073 516 ft 123 kts 70°
2026-04-26 19:59 51.19363 2.83383 373 ft 122 kts 73°
2026-04-26 19:59 51.19564 2.84689 206 ft 123 kts 73°
2026-04-26 20:00 51.19763 2.85995 33 ft 119 kts 73°
2026-04-26 20:00 51.19920 2.86992 25 ft 60 kts 78°
2026-04-26 20:00 51.19983 2.87400 28 ft 22 kts 67°
2026-04-26 20:00 51.20017 2.87497 28 ft 0 kts 53°
2026-04-26 20:01 51.20048 2.87473 25 ft 2 kts 42°
2026-04-26 20:01 51.20083 2.87513 27 ft 9 kts 35°
2026-04-26 20:01 51.20111 2.87542 26 ft 2 kts 32°
2026-04-26 20:01 51.20118 2.87549 27 ft 0 kts 31°
2026-04-26 20:02 51.20118 2.87550 27 ft 0 kts 31°
2026-04-26 20:02 51.20119 2.87550 27 ft 1 kts 31°
2026-04-26 20:02 51.20139 2.87570 26 ft 3 kts 31°
2026-04-26 20:02 51.20140 2.87571 27 ft 1 kts 31°
2026-04-26 20:03 51.20174 2.87586 23 ft 6 kts
2026-04-26 20:03 51.20229 2.87579 26 ft 10 kts 353°
2026-04-26 20:03 51.20302 2.87547 25 ft 10 kts 328°
2026-04-26 20:03 51.20319 2.87472 24 ft 11 kts 270°
2026-04-26 20:04 51.20295 2.87281 27 ft 21 kts 256°
2026-04-26 20:04 51.20265 2.87065 25 ft 21 kts 258°
2026-04-26 20:04 51.20234 2.86858 24 ft 16 kts 256°
2026-04-26 20:04 51.20237 2.86766 25 ft 7 kts 300°
2026-04-26 20:05 51.20264 2.86740 23 ft 5 kts 334°
2026-04-26 20:05 51.20292 2.86729 26 ft 4 kts 345°
2026-04-26 20:05 51.20304 2.86723 26 ft 1 kts 345°
2026-04-26 20:05 51.20301 2.86725 27 ft 2 kts 345°
2026-04-26 20:06 51.20291 2.86729 26 ft 0 kts 345°